| time (UTC) | temp C | wind direction | speed KPH | gust KPH | rain 1hr cm | rain 24hr cm | rain mn cm | humidity % | barometer mb |
| 20260507224532 | 20 | 139 | 9.7 | 22.5 | 0.00 | 0.00 | 0.00 | 29 | 1009.4 |
| 20260507223028 | 20 | 139 | 14.5 | 24.1 | 0.00 | 0.00 | 0.00 | 30 | 1009.5 |
| 20260507221535 | 20 | 139 | 9.7 | 25.7 | 0.00 | 0.00 | 0.00 | 31 | 1009.6 |
| 20260507220028 | 20 | 139 | 12.9 | 25.7 | 0.00 | 0.00 | 0.00 | 32 | 1009.6 |
| 20260507214525 | 20 | 139 | 9.7 | 20.9 | 0.00 | 0.00 | 0.00 | 35 | 1009.7 |
| 20260507213031 | 20 | 139 | 9.7 | 17.7 | 0.00 | 0.00 | 0.00 | 32 | 1009.8 |
| 20260507211528 | 20 | 139 | 6.4 | 19.3 | 0.00 | 0.00 | 0.00 | 31 | 1010.0 |
| 20260507210026 | 19 | 139 | 11.3 | 22.5 | 0.00 | 0.00 | 0.00 | 33 | 1010.2 |
| 20260507204526 | 20 | 139 | 4.8 | 27.4 | 0.00 | 0.00 | 0.00 | 32 | 1010.2 |
| 20260507203032 | 19 | 139 | 14.5 | 22.5 | 0.00 | 0.00 | 0.00 | 33 | 1010.3 |
| 20260507201529 | 18 | 139 | 9.7 | 27.4 | 0.00 | 0.00 | 0.00 | 35 | 1010.2 |
| 20260507200028 | 19 | 139 | 9.7 | 25.7 | 0.00 | 0.00 | 0.00 | 35 | 1010.2 |
| 20260507194526 | 18 | 139 | 9.7 | 20.9 | 0.00 | 0.00 | 0.00 | 32 | 1010.1 |
| 20260507193028 | 18 | 139 | 8.0 | 27.4 | 0.00 | 0.00 | 0.00 | 34 | 1010.2 |
| 20260507191528 | 18 | 139 | 9.7 | 29.0 | 0.00 | 0.00 | 0.00 | 33 | 1010.2 |
| 20260507190028 | 18 | 139 | 11.3 | 30.6 | 0.00 | 0.00 | 0.00 | 32 | 1010.1 |
| 20260507184525 | 18 | 139 | 9.7 | 19.3 | 0.00 | 0.00 | 0.00 | 34 | 1010.3 |
| 20260507183026 | 18 | 139 | 14.5 | 24.1 | 0.00 | 0.00 | 0.00 | 36 | 1010.3 |
| 20260507181531 | 17 | 139 | 12.9 | 24.1 | 0.00 | 0.00 | 0.00 | 35 | 1010.5 |
| 20260507180034 | 17 | 139 | 11.3 | 37.0 | 0.00 | 0.00 | 0.00 | 35 | 1010.7 |
| 20260507174528 | 17 | 140 | 11.3 | 22.5 | 0.00 | 0.00 | 0.00 | 37 | 1010.7 |
| 20260507173032 | 17 | 140 | 8.0 | 20.9 | 0.00 | 0.00 | 0.00 | 39 | 1010.7 |
| 20260507171526 | 17 | 140 | 8.0 | 17.7 | 0.00 | 0.00 | 0.00 | 39 | 1010.7 |
| 20260507170025 | 16 | 140 | 8.0 | 22.5 | 0.00 | 0.00 | 0.00 | 39 | 1010.7 |
| 20260507164526 | 16 | 140 | 11.3 | 25.7 | 0.00 | 0.00 | 0.00 | 38 | 1010.7 |
| 20260507163025 | 16 | 139 | 11.3 | 24.1 | 0.00 | 0.00 | 0.00 | 39 | 1010.6 |
| 20260507161530 | 16 | 139 | 9.7 | 20.9 | 0.00 | 0.00 | 0.00 | 41 | 1010.7 |
| 20260507160028 | 15 | 139 | 12.9 | 24.1 | 0.00 | 0.00 | 0.00 | 44 | 1010.6 |
| 20260507154526 | 14 | 139 | 8.0 | 20.9 | 0.00 | 0.00 | 0.00 | 49 | 1010.7 |
| 20260507153027 | 14 | 139 | 8.0 | 20.9 | 0.00 | 0.00 | 0.00 | 49 | 1010.7 |
| 20260507151528 | 13 | 139 | 11.3 | 20.9 | 0.00 | 0.00 | 0.00 | 51 | 1010.6 |
| 20260507150028 | 13 | 139 | 6.4 | 16.1 | 0.00 | 0.00 | 0.00 | 53 | 1010.5 |
| 20260507144530 | 13 | 139 | 6.4 | 19.3 | 0.00 | 0.00 | 0.00 | 53 | 1010.6 |
| 20260507143031 | 13 | 139 | 8.0 | 17.7 | 0.00 | 0.00 | 0.00 | 53 | 1010.5 |
| 20260507141526 | 12 | 139 | 6.4 | 12.9 | 0.00 | 0.00 | 0.00 | 57 | 1010.4 |
| 20260507140030 | 12 | 139 | 6.4 | 19.3 | 0.00 | 0.00 | 0.00 | 57 | 1010.4 |
| 20260507134528 | 12 | 139 | 9.7 | 19.3 | 0.00 | 0.00 | 0.00 | 58 | 1010.3 |
| 20260507133028 | 11 | 139 | 9.7 | 17.7 | 0.00 | 0.00 | 0.00 | 59 | 1010.0 |
| 20260507131534 | 11 | 139 | 9.7 | 16.1 | 0.00 | 0.00 | 0.00 | 60 | 1010.1 |
| 20260507130025 | 11 | 139 | 8.0 | 12.9 | 0.00 | 0.00 | 0.00 | 61 | 1009.9 |
| 20260507124532 | 11 | 139 | 6.4 | 12.9 | 0.00 | 0.00 | 0.00 | 62 | 1009.8 |
| 20260507123028 | 11 | 139 | 6.4 | 16.1 | 0.00 | 0.00 | 0.00 | 62 | 1009.6 |
| 20260507121526 | 11 | 139 | 6.4 | 14.5 | 0.00 | 0.00 | 0.00 | 63 | 1009.5 |
| 20260507120028 | 11 | 139 | 8.0 | 16.1 | 0.00 | 0.00 | 0.00 | 62 | 1009.2 |
| 20260507114532 | 11 | 139 | 9.7 | 17.7 | 0.00 | 0.00 | 0.00 | 61 | 1009.2 |
| 20260507113028 | 11 | 139 | 8.0 | 12.9 | 0.00 | 0.00 | 0.00 | 60 | 1009.1 |
| 20260507111531 | 12 | 139 | 8.0 | 14.5 | 0.00 | 0.00 | 0.00 | 56 | 1008.9 |
| 20260507083032 | 13 | 139 | 8.0 | 14.5 | 0.00 | 0.00 | 0.00 | 56 | 1008.1 |
| 20260507081525 | 13 | 139 | 8.0 | 19.3 | 0.00 | 0.00 | 0.00 | 55 | 1008.1 |
| 20260507080029 | 13 | 139 | 9.7 | 20.9 | 0.00 | 0.00 | 0.00 | 53 | 1008.2 |
| 20260507074528 | 13 | 139 | 11.3 | 17.7 | 0.00 | 0.00 | 0.00 | 53 | 1008.2 |
| 20260507073028 | 13 | 139 | 11.3 | 16.1 | 0.00 | 0.00 | 0.00 | 53 | 1008.2 |
| 20260507071528 | 13 | 139 | 8.0 | 16.1 | 0.00 | 0.00 | 0.00 | 53 | 1008.2 |
| 20260507070031 | 13 | 139 | 6.4 | 9.7 | 0.00 | 0.00 | 0.00 | 54 | 1008.2 |
| 20260507064527 | 13 | 139 | 4.8 | 9.7 | 0.00 | 0.00 | 0.00 | 54 | 1008.3 |
| 20260507063026 | 13 | 139 | 3.2 | 6.4 | 0.00 | 0.00 | 0.00 | 55 | 1008.5 |
| 20260507061527 | 13 | 139 | 3.2 | 4.8 | 0.00 | 0.00 | 0.00 | 55 | 1008.4 |
| 20260507060030 | 13 | 139 | 1.6 | 3.2 | 0.00 | 0.00 | 0.00 | 54 | 1008.7 |
| 20260507054535 | 13 | 139 | 1.6 | 9.7 | 0.00 | 0.00 | 0.00 | 53 | 1008.9 |
| 20260507053030 | 13 | 139 | 0.0 | 3.2 | 0.00 | 0.00 | 0.00 | 56 | 1008.7 |
| 20260507051531 | 13 | 139 | 3.2 | 4.8 | 0.00 | 0.00 | 0.00 | 60 | 1008.8 |
| 20260507050029 | 13 | 139 | 1.6 | 4.8 | 0.00 | 0.00 | 0.00 | 59 | 1008.9 |
| 20260507044526 | 13 | 139 | 3.2 | 4.8 | 0.00 | 0.00 | 0.00 | 56 | 1008.8 |
| 20260507043027 | 14 | 139 | 1.6 | 8.0 | 0.00 | 0.00 | 0.00 | 55 | 1008.6 |
| 20260507041528 | 14 | 139 | 3.2 | 9.7 | 0.00 | 0.00 | 0.00 | 55 | 1008.5 |
| 20260507040026 | 15 | 139 | 3.2 | 6.4 | 0.00 | 0.00 | 0.00 | 53 | 1008.3 |
| 20260507034526 | 15 | 139 | 4.8 | 9.7 | 0.00 | 0.00 | 0.00 | 51 | 1008.2 |
| 20260507033030 | 16 | 139 | 3.2 | 6.4 | 0.00 | 0.00 | 0.00 | 48 | 1007.6 |
| 20260507031525 | 16 | 139 | 6.4 | 11.3 | 0.00 | 0.00 | 0.00 | 45 | 1007.1 |
| 20260507030031 | 16 | 139 | 3.2 | 9.7 | 0.00 | 0.00 | 0.00 | 44 | 1007.5 |
| 20260507024528 | 17 | 139 | 8.0 | 24.1 | 0.00 | 0.00 | 0.00 | 43 | 1007.9 |
| 20260507023026 | 17 | 139 | 11.3 | 29.0 | 0.00 | 0.00 | 0.00 | 35 | 1007.6 |
| 20260507021530 | 17 | 139 | 12.9 | 29.0 | 0.00 | 0.00 | 0.00 | 32 | 1007.4 |
| 20260507020030 | 18 | 140 | 6.4 | 14.5 | 0.00 | 0.00 | 0.00 | 30 | 1007.5 |
| 20260507014531 | 18 | 139 | 0.0 | 1.6 | 0.00 | 0.00 | 0.00 | 29 | 1007.5 |
| 20260507013042 | 18 | 139 | 1.6 | 6.4 | 0.00 | 0.00 | 0.00 | 28 | 1007.2 |
| 20260507011526 | 18 | 139 | 1.6 | 9.7 | 0.00 | 0.00 | 0.00 | 28 | 1006.8 |
| 20260507010035 | 18 | 139 | 3.2 | 8.0 | 0.00 | 0.00 | 0.00 | 28 | 1006.7 |
| 20260507004529 | 18 | 139 | 0.0 | 8.0 | 0.00 | 0.00 | 0.00 | 27 | 1006.9 |
| 20260507003038 | 18 | 139 | 4.8 | 11.3 | 0.00 | 0.00 | 0.00 | 27 | 1006.8 |
| 20260507000033 | 18 | 139 | 3.2 | 12.9 | 0.00 | 0.00 | 0.00 | 27 | 1006.6 |
| 20260506234528 | 18 | 139 | 6.4 | 12.9 | 0.00 | 0.00 | 0.00 | 27 | 1006.6 |
| 20260506233028 | 18 | 139 | 3.2 | 11.3 | 0.00 | 0.00 | 0.00 | 27 | 1006.6 |
| 20260506231528 | 18 | 139 | 6.4 | 11.3 | 0.00 | 0.00 | 0.00 | 27 | 1006.5 |
| 20260506230033 | 19 | 139 | 6.4 | 16.1 | 0.00 | 0.00 | 0.00 | 26 | 1006.7 |